ARIANE 5 DEB (SYLDA), 49334

Orbit data source: Space-Track

ARIANE 5 DEB (SYLDA), 49334 is space debris in HEO originally from a launch on Sun, 24 Oct 2021 UTC launched from the French Guiana (FRGUI). Debris objects in space refer to the collection of defunct objects orbiting the Earth. Examples of debris include non-operational satellites, rocket bodies, and fragments generated from explosions, collisions, or faulty payload assembly.

Loading next visibility...
Identifier
49334, 2021-095C
Orbit
HEO
Country
Flag of FRFR
Related business
Manufacturer
ADS/Bremen
Mission
Spacecraft
Bus & Motor
SYLDA 5, Unknown motor
Mass
440 kg wet, 440 kg dry
Launch date (UTC)
2021-10-24 (4 years ago)
Launch vehicle
Unknown
Launch site
French Guiana (FRGUI)
Object type
Payload
Rocket body
Debris
Shape & HBR
Cyl, 2.8 m
Radar Cross Section
27.391 m², Large (>1 m²)

Expand to show TLE details & history
Last TLE update: 1 day ago

TLE from 1 day ago
0 ARIANE 5 DEB (SYLDA)
1 49334U 21095C   25345.74554177  .00561719 -25297-6  79292-2 0  9991
2 49334   6.1946  32.0129 5573386 247.0440  46.3834  4.81259649 47766
Epoch: 2025-12-11T17:53Z
TLE epoch observation values (Epoch: 2025-12-11T17:53:34.808Z)
Latitude
-0°
Longitude
42.88533°
Altitude
6,668.736 km
Speed
5.848 km/s
True Right ascension
02h 07m 54s
True Declination
0° 00' 00"
Sunlit
Object was in daylight at epoch
Visualization orbit readout
Latitude
Unknown
Longitude
Unknown
Altitude
Unknown
Speed
Unknown
Apparent Right ascension
Unknown
Apparent Declination
Unknown
Sunlit
N/A
Visualization observer readout
Local Sidereal Time
02:36:38
Azimuth
Unknown
Elevation
Unknown
Doppler factor
Unknown
Orbital elements
Apogee altitude
16,707.847 km
Perigee altitude
183.875 km
Semi-major axis
14,823.998 km
Eccentricity
0.55734
Inclination
6.1946°
RAAN
32.0129°
Arg. of periapsis
247.044°
True anomaly
112.8731°
Mean anomaly
46.3834°
Eccentric anomaly
77.56776°
Mean motion
1.20253 °/min
Orbital period
299.37 mins
BSTAR
0.0079292
Loading maneuver chart data...
Computing Atmospheric mass density...
Loading historical data...
Loading historical data...
Loading historical data...
Loading historical data...
Loading historical data...
Loading historical data...
Loading historical data...
Other satellites on launch #95 in the year 2021 (2021-10-24 UTC)

Documentation

Showing up to 5 results
|